Retour au catalogue

GRUS-1D

ActifScienceSSO
NORAD 47936·PAYLOAD·🇯🇵 Japan

Lancé Mar 22, 2021 depuis Baikonur Cosmodrome

Loading…

Prochains Passages (prochaines 24 heures)

TLE

FraisSource: Space-Track

Époque: Sep 14, 2026, 15:53 UTC

1 47936U 21022E   26257.66216260  .00000592  00000-0  53708-4 0  9990
2 47936  97.5222 138.0289 0011665   8.3430 351.7985 14.98856079299304

Suivez GRUS-1D en temps réel avec AllMySat

Download on the App Store